This is the latest recevied weather packets stored in our database for station/object LA4M-10. If no packets are shown the sender has not sent any weather packets the latest 10 day(s).
| Time | Temp. | Humidity | Pressure | Rain* | Wind** | Luminosity | Snow |
|---|---|---|---|---|---|---|---|
| 1788541270 | 12.22° C | 100% | 932 hPa | - | - | - | - |
| 1788540370 | 12.78° C | 100% | 931.9 hPa | - | - | - | - |
| 1788539470 | 12.78° C | 100% | 931.9 hPa | - | - | - | - |
| 1788538570 | 13.33° C | 100% | 931.9 hPa | - | - | - | - |
| 1788537669 | 13.33° C | 100% | 931.9 hPa | - | - | - | - |
| 1788536769 | 14.44° C | 100% | 931.8 hPa | - | - | - | - |
| 1788535869 | 15° C | 100% | 931.9 hPa | - | - | - | - |
| 1788534969 | 15.56° C | 100% | 931.9 hPa | - | - | - | - |
| 1788534069 | 15.56° C | 100% | 932 hPa | - | - | - | - |
| 1788533169 | 16.11° C | 100% | 931.9 hPa | - | - | - | - |
| 1788532269 | 16.67° C | 100% | 931.9 hPa | - | - | - | - |
| 1788531369 | 16.67° C | 99% | 932 hPa | - | - | - | - |
| 1788530469 | 16.11° C | 100% | 932.1 hPa | - | - | - | - |
| 1788529568 | 17.22° C | 100% | 932.1 hPa | - | - | - | - |
| 1788528668 | 17.22° C | 100% | 932.2 hPa | - | - | - | - |
| 1788527768 | 17.22° C | 94% | 932.3 hPa | - | - | - | - |
| 1788526868 | 16.67° C | 100% | 932.2 hPa | - | - | - | - |
| 1788525968 | 17.22° C | 98% | 932.2 hPa | - | - | - | - |
| 1788525068 | 17.22° C | 100% | 932.4 hPa | - | - | - | - |
| 1788524168 | 16.67° C | 100% | 932.4 hPa | - | - | - | - |
| 1788523268 | 15.56° C | 100% | 932.5 hPa | - | - | - | - |
| 1788522368 | 15.56° C | 100% | 932.4 hPa | - | - | - | - |
| 1788521468 | 15° C | 100% | 932.5 hPa | - | - | - | - |
| 1788520567 | 15° C | 100% | 932.5 hPa | - | - | - | - |
| 1788519667 | 15° C | 100% | 932.7 hPa | - | - | - | - |
* Rain since midnight (hover to see other rain measurements)
** Current wind speed in m/s (hover to see current wind gust speed)